Weather History for Erie, PA

Change the Weather History Date:

Friday, August 9, 2013

  Actual Average Record
Temperature  
Mean Temperature 69 °F 71 °F  
Max Temperature 74 °F 79 °F 90 °F (2009)
Min Temperature 63 °F 63 °F 51 °F (1958)
Degree Days  
Heating Degree Days 0 0  
Month to date heating degree days 3 0  
Since 1 June heating degree days 74 68  
Since 1 July heating degree days 6 7  
Cooling Degree Days 4 6  
Month to date cooling degree days 47 62  
Year to date cooling degree days 497 437  
Since 1 June cooling degree days 412 398  
Growing Degree Days 18 (Base 50)    
Moisture  
Dew Point 64 °F    
Average Humidity 71    
Maximum Humidity 93    
Minimum Humidity 49    
Precipitation  
Precipitation 0.05 in 0.12 in 1.08 in (2011)
Month to date precipitation 0.78 1.05  
Year to date precipitation 30.91 23.41  
Snow  
Snow 0.00 in 0.00 in - ()
Month to date snowfall 0.0 0.0  
Since 1 June snowfall 0.0 0.0  
Since 1 July snowfall 0.0 0.0  
Snow Depth 0.00 in    
Sea Level Pressure  
Sea Level Pressure 29.93 in    
Wind  
Wind Speed 6 mph (WSW)    
Max Wind Speed 13 mph    
Max Gust Speed 17 mph    
Visibility 9 miles    
Events Rain    
T = Trace of Precipitation, MM = Missing Value Source: NWS Daily Summary

Daily Weather History Graph

Daily Weather History Graph

Search for Another Location

Airport:

Trip Planner

Search our weather history database for the weather conditions in past years. The results will help you decide how hot, cold, wet, or windy it might be!

Date:

Astronomy

Aug. 09, 2013 Rise Set
Actual Time 6:22 AM EDT 8:29 PM EDT
Civil Twilight 5:51 AM EDT 8:59 PM EDT
Nautical Twilight 5:13 AM EDT 9:37 PM EDT
Astronomical Twilight 4:32 AM EDT 10:18 PM EDT
Moon 9:11 AM EDT (8/9) 9:33 PM EDT (8/9)
Length of Visible Light 15h 08m
Length of Day
14h 06m
Waxing Crescent, 7% of the Moon is Illuminated
Aug 9
Waxing Crescent
Aug 14
First Quarter
Aug 20
Full
Aug 28
Last Quarter
Sep 5
New

Hourly Weather History & Observations

Time (EDT) Temp. Dew Point Humidity Pressure Visibility Wind Dir Wind Speed Gust Speed Precip Events Conditions
12:02 AM 73.4 °F 69.8 °F 88% 29.93 in 9.0 mi Calm Calm - N/A   Mostly Cloudy
12:43 AM 73.4 °F 69.8 °F 88% 29.93 in 9.0 mi Calm Calm - N/A   Scattered Clouds
12:51 AM 73.0 °F 69.1 °F 87% 29.91 in 9.0 mi SSW 3.5 mph - N/A   Mostly Cloudy
1:09 AM 73.4 °F 69.8 °F 88% 29.92 in 8.0 mi Calm Calm - N/A   Overcast
1:18 AM 73.4 °F 69.8 °F 88% 29.92 in 8.0 mi Calm Calm - N/A   Overcast
1:37 AM 73.4 °F 69.8 °F 88% 29.91 in 9.0 mi Calm Calm - N/A   Overcast
1:51 AM 73.0 °F 69.1 °F 87% 29.89 in 9.0 mi Calm Calm - N/A   Mostly Cloudy
2:09 AM 73.4 °F 69.8 °F 88% 29.90 in 9.0 mi Calm Calm - N/A   Partly Cloudy
2:23 AM 71.6 °F 69.8 °F 94% 29.90 in 9.0 mi SW 3.5 mph - N/A   Mostly Cloudy
2:51 AM 72.0 °F 69.1 °F 91% 29.89 in 9.0 mi SSW 3.5 mph - N/A   Overcast
3:10 AM 71.6 °F 69.8 °F 94% 29.90 in 9.0 mi SSW 3.5 mph - N/A   Overcast
3:29 AM 71.6 °F 69.8 °F 94% 29.90 in 10.0 mi SW 3.5 mph - N/A   Overcast
3:51 AM 72.0 °F 69.1 °F 91% 29.89 in 10.0 mi SW 3.5 mph - N/A   Overcast
4:00 AM 71.6 °F 69.8 °F 94% 29.90 in 10.0 mi SW 4.6 mph - N/A   Overcast
4:41 AM 71.6 °F 69.8 °F 94% 29.90 in 3.0 mi SW 3.5 mph - 0.04 in Rain Light Rain
4:49 AM 71.6 °F 68.0 °F 88% 29.90 in 8.0 mi NW 5.8 mph - 0.04 in Rain Light Rain
4:51 AM 71.1 °F 66.9 °F 87% 29.88 in 8.0 mi Variable 3.5 mph - 0.04 in Rain Light Rain
5:29 AM 69.8 °F 64.4 °F 83% 29.90 in 10.0 mi North 9.2 mph - 0.00 in   Overcast
5:51 AM 68.0 °F 63.0 °F 84% 29.90 in 10.0 mi North 8.1 mph - 0.00 in   Overcast
6:51 AM 66.9 °F 63.0 °F 87% 29.91 in 4.0 mi NNE 5.8 mph - N/A   Overcast
7:51 AM 66.9 °F 64.0 °F 90% 29.91 in 4.0 mi NE 4.6 mph - 0.00 in Rain Light Rain
8:48 AM 66.2 °F 64.4 °F 94% 29.92 in 7.0 mi NE 4.6 mph - 0.01 in   Overcast
8:51 AM 66.9 °F 64.0 °F 90% 29.91 in 8.0 mi ENE 4.6 mph - 0.01 in   Overcast
9:51 AM 68.0 °F 64.0 °F 87% 29.92 in 9.0 mi NE 3.5 mph - 0.00 in   Overcast
10:51 AM 66.9 °F 63.0 °F 87% 29.92 in 10.0 mi NNE 5.8 mph - N/A   Overcast
11:51 AM 70.0 °F 63.0 °F 78% 29.93 in 10.0 mi NNW 3.5 mph - N/A   Overcast
12:51 PM 72.0 °F 62.1 °F 71% 29.94 in 10.0 mi Variable 5.8 mph - N/A   Mostly Cloudy
1:06 PM 71.6 °F 60.8 °F 69% 29.95 in 10.0 mi Variable 6.9 mph - N/A   Partly Cloudy
1:51 PM 73.0 °F 61.0 °F 66% 29.95 in 10.0 mi West 5.8 mph - N/A   Clear
2:51 PM 72.0 °F 62.1 °F 71% 29.94 in 10.0 mi West 8.1 mph - N/A   Clear
3:51 PM 73.0 °F 62.1 °F 68% 29.95 in 10.0 mi West 10.4 mph - N/A   Clear
4:51 PM 73.0 °F 60.1 °F 64% 29.95 in 10.0 mi West 13.8 mph - N/A   Clear
5:51 PM 73.0 °F 55.0 °F 53% 29.95 in 10.0 mi Variable 5.8 mph - N/A   Clear
6:51 PM 72.0 °F 51.1 °F 48% 29.94 in 10.0 mi WSW 6.9 mph - N/A   Clear
7:51 PM 70.0 °F 52.0 °F 53% 29.97 in 10.0 mi SW 4.6 mph - N/A   Clear
8:51 PM 66.9 °F 54.0 °F 63% 29.97 in 10.0 mi SW 5.8 mph - N/A   Clear
9:51 PM 64.9 °F 54.0 °F 68% 29.99 in 10.0 mi SSW 4.6 mph - N/A   Clear
10:51 PM 64.0 °F 54.0 °F 70% 29.99 in 10.0 mi SSW 5.8 mph - N/A   Clear
11:51 PM 64.9 °F 54.0 °F 68% 30.00 in 10.0 mi SSW 6.9 mph - N/A   Clear